TimePDT,TemperatureF,Dew PointF,Humidity,Sea Level PressureIn,VisibilityMPH,Wind Direction,Wind SpeedMPH,Gust SpeedMPH,PrecipitationIn,Events,Conditions,WindDirDegrees,DateUTC
12:56 AM,77.0,39.9,26,29.72,10.0,WSW,13.8,-,N/A,,Clear,250,2013-05-28 07:56:00
1:56 AM,77.0,41.0,28,29.70,10.0,WSW,16.1,-,N/A,,Clear,250,2013-05-28 08:56:00
2:56 AM,75.9,41.0,29,29.70,10.0,WSW,12.7,-,N/A,,Clear,250,2013-05-28 09:56:00
3:56 AM,75.9,41.0,29,29.70,10.0,WSW,17.3,-,N/A,,Clear,250,2013-05-28 10:56:00
4:56 AM,75.9,43.0,31,29.70,10.0,WSW,16.1,-,N/A,,Clear,250,2013-05-28 11:56:00
5:56 AM,75.0,42.1,31,29.68,10.0,WSW,13.8,-,N/A,,Clear,250,2013-05-28 12:56:00
6:56 AM,78.1,43.0,29,29.70,10.0,WSW,11.5,-,N/A,,Partly Cloudy,240,2013-05-28 13:56:00
7:56 AM,82.0,42.1,24,29.70,10.0,WSW,11.5,-,N/A,,Partly Cloudy,250,2013-05-28 14:56:00
8:56 AM,86.0,41.0,20,29.70,10.0,WSW,15.0,-,N/A,,Partly Cloudy,250,2013-05-28 15:56:00
9:56 AM,88.0,39.9,18,29.69,10.0,WSW,13.8,-,N/A,,Mostly Cloudy,240,2013-05-28 16:56:00
10:56 AM,88.0,41.0,19,29.69,10.0,WSW,6.9,-,N/A,,Mostly Cloudy,240,2013-05-28 17:56:00
11:56 AM,91.0,41.0,17,29.68,10.0,SSW,9.2,-,N/A,,Scattered Clouds,210,2013-05-28 18:56:00
12:56 PM,93.0,43.0,18,29.67,10.0,WSW,9.2,-,N/A,,Scattered Clouds,240,2013-05-28 19:56:00
1:56 PM,93.9,42.1,17,29.63,10.0,SW,11.5,-,N/A,,Scattered Clouds,230,2013-05-28 20:56:00
2:56 PM,96.1,39.0,14,29.61,10.0,Variable,5.8,-,N/A,,Partly Cloudy,0,2013-05-28 21:56:00
3:56 PM,99.0,42.1,14,29.59,10.0,West,11.5,20.7,N/A,,Partly Cloudy,280,2013-05-28 22:56:00
4:56 PM,96.1,44.1,17,29.60,10.0,NW,15.0,32.2,N/A,,Clear,310,2013-05-28 23:56:00
5:56 PM,93.9,45.0,18,29.59,10.0,West,23.0,27.6,N/A,,Clear,260,2013-05-29 00:56:00
6:56 PM,90.0,46.0,22,29.60,10.0,West,20.7,26.5,N/A,,Clear,260,2013-05-29 01:56:00
7:56 PM,84.9,48.0,28,29.61,10.0,WSW,16.1,-,N/A,,Clear,250,2013-05-29 02:56:00
8:56 PM,82.0,48.9,31,29.63,10.0,WSW,15.0,-,N/A,,Clear,240,2013-05-29 03:56:00
9:56 PM,79.0,50.0,36,29.65,10.0,West,15.0,-,N/A,,Clear,260,2013-05-29 04:56:00
10:56 PM,78.1,50.0,37,29.66,10.0,WSW,11.5,-,N/A,,Clear,250,2013-05-29 05:56:00
11:56 PM,77.0,50.0,39,29.66,10.0,SW,11.5,-,N/A,,Clear,230,2013-05-29 06:56:00